Regional Weather Roundup
Issued by NWS Charleston, WV

Home | Current Version | Previous Version | Text Only | Print | Product List | Glossary Off
Versions: 1 2 3 4 5 6 7 8 9 10 11 12 13 14 15 16 17 18 19 20 21 22 23 24 25 26 27 28 29 30 31 32 33 34 35 36 37 38 39 40 41 42 43 44 45 46 47 48 49 50

000
ASUS41 KRLX 271410
RWRRLX
West Virginia Regional Weather Roundup
National Weather Service Charleston WV
900 AM EST TUE JAN 27 2015

Note: "fair" indicates few or no clouds below 12,000 feet with no
significant weather and/or obstructions to visibility.

WVZ003-271500-
Northern Panhandle of West Virginia

CITY           SKY/WX    TMP DP  RH WIND       PRES   REMARKS
WHEELING       LGT SNOW  18  14  84 NW7       29.93R VSB 1   WCI   9
$$

WVZ009-271500-
Northwest West Virginia

CITY           SKY/WX    TMP DP  RH WIND       PRES   REMARKS
PARKERSBURG    CLOUDY    20  13  74 NW6       30.01R
$$

WVZ006-271500-
Western West Virginia

CITY           SKY/WX    TMP DP  RH WIND       PRES   REMARKS
HUNTINGTON     PTSUNNY   17  13  84 N5        30.01R WCI  10
$$

WVZ015-271500-
West Central West Virginia

CITY           SKY/WX    TMP DP  RH WIND       PRES   REMARKS
CHARLESTON     PTSUNNY   17  13  84 CALM      29.98R
$$

WVZ022-031-271500-
North Central West Virginia

CITY           SKY/WX    TMP DP  RH WIND       PRES   REMARKS
CLARKSBURG     LGT SNOW  20  14  77 W5        29.92R
MORGANTOWN     CLOUDY    20  14  77 NW6       29.92R HAZE
$$

WVZ025-035-042-045-271500-
Southern West Virginia

CITY           SKY/WX    TMP DP  RH WIND       PRES   REMARKS
BECKLEY        SUNNY     19  12  74 W8        29.83R WCI   9
LOGAN            N/A     21  16  79 NW5       29.91R
BLUEFIELD      MOSUNNY   21  12  68 W10       29.81R WCI  10
LEWISBURG      SUNNY     21  10  64 W3        29.81S
$$

WVZ047-271500-
Northern Mountains of West Virginia

CITY           SKY/WX    TMP DP  RH WIND       PRES   REMARKS
ELKINS         LGT SNOW  19  14  81 CALM      29.85R
$$

WVZ052-271500-
Eastern Panhandle of West Virginia

CITY           SKY/WX    TMP DP  RH WIND       PRES   REMARKS
MARTINSBURG    LGT SNOW  27  19  72 NW13G18   29.84R
PETERSBURG     PTSUNNY   20  19  94 CALM      29.88R
$$


USA.gov is the U.S. government's official web portal to all federal, state and local government web resources and services.